Mena, AR

5:29 AM CST on February 20, 2017 (GMT -0600)
Mena

Weather History for KMEZ - September, 2014

Change the Weather History Date:

Wednesday, September 24, 2014

  Actual Average (KFSM) Record (KFSM)
Temperature  
Mean Temperature 63 °F -  
Max Temperature 82 °F 81 °F 97 °F (1920)
Min Temperature 44 °F 56 °F 36 °F (1989)
Degree Days  
Heating Degree Days 2    
Growing Degree Days 13 (Base 50)    
Moisture  
Dew Point 52 °F    
Average Humidity 74    
Maximum Humidity 100    
Minimum Humidity 35    
Precipitation  
Precipitation 0.00 in - - ()
Sea Level Pressure  
Sea Level Pressure 30.20 in    
Wind  
Wind Speed 0 mph (East)    
Max Wind Speed 4 mph    
Max Gust Speed -    
Visibility 8 miles    
Events      
Averages and records for this station are not official NWS values.
T = Trace of Precipitation, MM = Missing Value Source: NWS Daily Summary

Daily Weather History Graph

Daily Weather History Graph

Search for Another Location

Airport or City:

Trip Planner

Search our weather history database for the weather conditions in past years. The results will help you decide how hot, cold, wet, or windy it might be!

Date:

Astronomy

Sep. 24, 2014 Rise Set
Actual Time 7:06 AM CDT 7:10 PM CDT
Civil Twilight 6:41 AM CDT 7:35 PM CDT
Nautical Twilight 6:11 AM CDT 8:05 PM CDT
Astronomical Twilight 5:42 AM CDT 8:34 PM CDT
Moon 7:25 AM CDT (9/24) 7:24 PM CDT (9/24)
Length of Visible Light 12h 54m
Length of Day
12h 04m
New Moon, 0% of the Moon is Illuminated
Sep 24
New Moon
Oct 1
First Quarter
Oct 8
Full
Oct 15
Last Quarter
Oct 23
New

Hourly Weather History & Observations

Time (CDT) Temp. Heat Index Dew Point Humidity Pressure Visibility Wind Dir Wind Speed Gust Speed Precip Events Conditions
12:15 AM 51.8 °F - 50.0 °F 94% - - Calm Calm - N/A   Unknown
12:35 AM 51.8 °F - 50.0 °F 94% - - Calm Calm - N/A   Unknown
12:55 AM 50.0 °F - 50.0 °F 100% - - Calm Calm - N/A   Unknown
1:15 AM 50.0 °F - 50.0 °F 100% - - Calm Calm - N/A   Unknown
1:35 AM 50.0 °F - 46.4 °F 87% - - Calm Calm - N/A   Unknown
1:55 AM 50.0 °F - 46.4 °F 87% - - Calm Calm - N/A   Unknown
2:15 AM 50.0 °F - 48.2 °F 94% - - Calm Calm - N/A   Unknown
2:35 AM 50.0 °F - 48.2 °F 94% - - Calm Calm - N/A   Unknown
2:55 AM 48.2 °F - 46.4 °F 93% - - Calm Calm - N/A   Unknown
3:15 AM 48.2 °F - 46.4 °F 93% - - Calm Calm - N/A   Unknown
3:35 AM 48.2 °F - 46.4 °F 93% - - Calm Calm - N/A   Unknown
3:55 AM 46.4 °F - 46.4 °F 100% - - Calm Calm - N/A   Unknown
4:15 AM 48.2 °F - 46.4 °F 93% - - Calm Calm - N/A   Unknown
4:35 AM 48.2 °F - 46.4 °F 93% - - Calm Calm - N/A   Unknown
4:55 AM 48.2 °F - 46.4 °F 93% - - Calm Calm - N/A   Unknown
5:15 AM 48.2 °F - 46.4 °F 93% - - Calm Calm - N/A   Unknown
5:35 AM 46.4 °F - 44.6 °F 93% - - Calm Calm - N/A   Unknown
5:55 AM 46.4 °F - 44.6 °F 93% - - Calm Calm - N/A   Unknown
6:15 AM 44.6 °F - 44.6 °F 100% - - Calm Calm - N/A   Unknown
6:35 AM 46.4 °F - 46.4 °F 100% - - Calm Calm - N/A   Unknown
6:55 AM 46.4 °F - 44.6 °F 93% - - Calm Calm - N/A   Unknown
7:15 AM 44.6 °F - 44.6 °F 100% - - Calm Calm - N/A   Unknown
7:35 AM 46.4 °F - 46.4 °F 100% - - Calm Calm - N/A   Unknown
7:55 AM 50.0 °F - 48.2 °F 94% - - Calm Calm - N/A   Unknown
8:15 AM 51.8 °F - 50.0 °F 94% - - Calm Calm - N/A   Unknown
8:35 AM 53.6 °F - 51.8 °F 94% - - Calm Calm - N/A   Unknown
8:55 AM 57.2 °F - 51.8 °F 82% - - Calm Calm - N/A   Unknown
9:15 AM 60.8 °F - 53.6 °F 77% - - Calm Calm - N/A   Unknown
9:35 AM 62.6 °F - 51.8 °F 68% 30.24 in - Calm Calm - N/A   Unknown
9:55 AM 64.4 °F - 53.6 °F 68% 30.24 in - Calm Calm - N/A   Unknown
10:15 AM 64.4 °F - 53.6 °F 68% 30.24 in - Calm Calm - N/A   Clear
10:35 AM 68.0 °F - 55.4 °F 64% 30.24 in 10.0 mi Calm Calm - N/A   Clear
10:55 AM 69.8 °F - 55.4 °F 60% 30.23 in 10.0 mi Calm Calm - N/A   Clear
11:15 AM 71.6 °F - 55.4 °F 57% 30.23 in 10.0 mi Calm Calm - N/A   Clear
11:35 AM 73.4 °F - 55.4 °F 53% 30.23 in 10.0 mi Calm Calm - N/A   Clear
11:55 AM 75.2 °F - 57.2 °F 53% 30.23 in 10.0 mi Calm Calm - N/A   Clear
12:15 PM 77.0 °F - 55.4 °F 47% 30.23 in 10.0 mi Calm Calm - N/A   Clear
12:35 PM 78.8 °F - 53.6 °F 42% 30.23 in 10.0 mi Calm Calm - N/A   Clear
12:55 PM 78.8 °F - 51.8 °F 39% 30.23 in 10.0 mi Calm Calm - N/A   Clear
1:15 PM 80.6 °F 80.3 °F 53.6 °F 39% 30.22 in 10.0 mi Calm Calm - N/A   Clear
1:35 PM 80.6 °F - 51.8 °F 37% 30.22 in 10.0 mi Calm Calm - N/A   Clear
1:55 PM 80.6 °F 80.3 °F 53.6 °F 39% 30.21 in 10.0 mi Calm Calm - N/A   Clear
2:15 PM 80.6 °F - 51.8 °F 37% 30.20 in 10.0 mi Calm Calm - N/A   Clear
2:35 PM 80.6 °F 80.3 °F 53.6 °F 39% 30.20 in 10.0 mi Calm Calm - N/A   Clear
2:55 PM 82.4 °F 81.4 °F 53.6 °F 37% 30.20 in 10.0 mi Calm Calm - N/A   Clear
3:15 PM 82.4 °F - 51.8 °F 35% 30.19 in 3.0 mi Calm Calm - N/A   Clear
3:35 PM 82.4 °F 81.4 °F 53.6 °F 37% 30.19 in 4.0 mi Calm Calm - N/A   Clear
3:55 PM 80.6 °F 80.3 °F 53.6 °F 39% 30.18 in 0.8 mi Calm Calm - N/A   Unknown
4:15 PM 82.4 °F 81.4 °F 53.6 °F 37% 30.18 in 4.0 mi Calm Calm - N/A   Clear
4:35 PM 82.4 °F - 51.8 °F 35% 30.17 in 0.5 mi Calm Calm - N/A   Unknown
4:55 PM 82.4 °F 81.4 °F 53.6 °F 37% 30.17 in 10.0 mi Calm Calm - N/A   Clear
5:15 PM 80.6 °F 80.3 °F 53.6 °F 39% 30.17 in 10.0 mi East 3.5 mph - N/A   Clear
5:35 PM 80.6 °F 80.3 °F 53.6 °F 39% 30.17 in 10.0 mi Calm Calm - N/A   Clear
5:55 PM 80.6 °F 80.5 °F 55.4 °F 42% 30.17 in 10.0 mi Calm Calm - N/A   Clear
6:15 PM 78.8 °F - 57.2 °F 47% 30.17 in 10.0 mi Calm Calm - N/A   Clear
6:35 PM 77.0 °F - 57.2 °F 50% 30.18 in 10.0 mi Calm Calm - N/A   Clear
6:55 PM 73.4 °F - 59.0 °F 61% 30.17 in 4.0 mi Calm Calm - N/A   Clear
7:15 PM 69.8 °F - 60.8 °F 73% 30.18 in 0.2 mi Calm Calm - N/A   Unknown
7:35 PM 68.0 °F - 60.8 °F 78% 30.18 in 1.8 mi Calm Calm - N/A   Unknown
7:55 PM 62.6 °F - 59.0 °F 88% 30.18 in 10.0 mi Calm Calm - N/A   Clear
8:15 PM 62.6 °F - 59.0 °F 88% 30.19 in - Calm Calm - N/A   Unknown
8:35 PM 62.6 °F - 59.0 °F 88% 30.19 in - Calm Calm - N/A   Unknown
8:55 PM 60.8 °F - 59.0 °F 94% 30.20 in - Calm Calm - N/A   Unknown
9:15 PM 62.6 °F - 59.0 °F 88% 30.21 in - Calm Calm - N/A   Unknown
9:35 PM 60.8 °F - 59.0 °F 94% 30.21 in - Calm Calm - N/A   Unknown
9:55 PM 60.8 °F - 57.2 °F 88% 30.21 in - Calm Calm - N/A   Unknown
10:15 PM 59.0 °F - 57.2 °F 94% 30.22 in - Calm Calm - N/A   Unknown
10:35 PM 60.8 °F - 57.2 °F 88% 30.22 in - Calm Calm - N/A   Unknown
10:55 PM 57.2 °F - 55.4 °F 94% 30.22 in - Calm Calm - N/A   Unknown
11:15 PM 57.2 °F - 55.4 °F 94% - - Calm Calm - N/A   Unknown
11:35 PM 57.2 °F - 55.4 °F 94% - - Calm Calm - N/A   Unknown
11:55 PM 57.2 °F - 55.4 °F 94% - - Calm Calm - N/A   Unknown